Year,Month,Day,Hour,Minute,Value (Times are PST for temperature in C)
2015,07,02,00,00,20.80
2015,07,02,00,01,20.70
2015,07,02,00,02,20.70
2015,07,02,00,03,20.70
2015,07,02,00,04,20.70
2015,07,02,00,05,20.60
2015,07,02,00,06,20.60
2015,07,02,00,07,20.60
2015,07,02,00,08,20.50
2015,07,02,00,09,20.50
2015,07,02,00,10,20.40
2015,07,02,00,11,20.30
2015,07,02,00,12,20.30
2015,07,02,00,13,20.20
2015,07,02,00,14,20.20
2015,07,02,00,15,20.10
2015,07,02,00,16,20.10
2015,07,02,00,17,20.00
2015,07,02,00,18,19.90
2015,07,02,00,19,19.90
2015,07,02,00,20,19.90
2015,07,02,00,21,19.80
2015,07,02,00,22,19.80
2015,07,02,00,23,19.80
2015,07,02,00,24,19.80
2015,07,02,00,25,19.80
2015,07,02,00,26,19.70
2015,07,02,00,27,19.70
2015,07,02,00,28,19.70
2015,07,02,00,29,19.60
2015,07,02,00,30,19.60
2015,07,02,00,31,19.60
2015,07,02,00,32,19.60
2015,07,02,00,33,19.60
2015,07,02,00,34,19.50
2015,07,02,00,35,19.50
2015,07,02,00,36,19.50
2015,07,02,00,37,19.50
2015,07,02,00,38,19.40
2015,07,02,00,39,19.50
2015,07,02,00,40,19.50
2015,07,02,00,41,19.50
2015,07,02,00,42,19.50
2015,07,02,00,43,19.50
2015,07,02,00,44,19.50
2015,07,02,00,45,19.50
2015,07,02,00,46,19.50
2015,07,02,00,47,19.50
2015,07,02,00,48,19.40
2015,07,02,00,49,19.40
2015,07,02,00,50,19.40
2015,07,02,00,51,19.40
2015,07,02,00,52,19.40
2015,07,02,00,53,19.40
2015,07,02,00,54,19.40
2015,07,02,00,55,19.40
2015,07,02,00,56,19.40
2015,07,02,00,57,19.40
2015,07,02,00,58,19.30
2015,07,02,00,59,19.30
2015,07,02,01,00,19.30
2015,07,02,01,01,19.30
2015,07,02,01,02,19.20
2015,07,02,01,03,19.20
2015,07,02,01,04,19.20
2015,07,02,01,05,19.10
2015,07,02,01,06,19.10
2015,07,02,01,07,19.10
2015,07,02,01,08,19.10
2015,07,02,01,09,19.10
2015,07,02,01,10,19.20
2015,07,02,01,11,19.20
2015,07,02,01,12,19.20
2015,07,02,01,13,19.20
2015,07,02,01,14,19.20
2015,07,02,01,15,19.20
2015,07,02,01,16,19.20
2015,07,02,01,17,19.20
2015,07,02,01,18,19.10
2015,07,02,01,19,19.10
2015,07,02,01,20,19.10
2015,07,02,01,21,19.00
2015,07,02,01,22,19.00
2015,07,02,01,23,18.90
2015,07,02,01,24,18.90
2015,07,02,01,25,18.80
2015,07,02,01,26,18.80
2015,07,02,01,27,18.80
2015,07,02,01,28,18.80
2015,07,02,01,29,18.80
2015,07,02,01,30,18.80
2015,07,02,01,31,18.70
2015,07,02,01,32,18.70
2015,07,02,01,33,18.70
2015,07,02,01,34,18.70
2015,07,02,01,35,18.70
2015,07,02,01,36,18.70
2015,07,02,01,37,18.70
2015,07,02,01,38,18.70
2015,07,02,01,39,18.70
2015,07,02,01,40,18.70
2015,07,02,01,41,18.60
2015,07,02,01,42,18.60
2015,07,02,01,43,18.60
2015,07,02,01,44,18.60
2015,07,02,01,45,18.60
2015,07,02,01,46,18.60
2015,07,02,01,47,18.50
2015,07,02,01,48,18.50
2015,07,02,01,49,18.50
2015,07,02,01,50,18.40
2015,07,02,01,51,18.40
2015,07,02,01,52,18.30
2015,07,02,01,53,18.30
2015,07,02,01,54,18.30
2015,07,02,01,55,18.30
2015,07,02,01,56,18.20
2015,07,02,01,57,18.20
2015,07,02,01,58,18.20
2015,07,02,01,59,18.20
2015,07,02,02,00,18.20
2015,07,02,02,01,18.20
2015,07,02,02,02,18.20
2015,07,02,02,03,18.10
2015,07,02,02,04,18.10
2015,07,02,02,05,18.10
2015,07,02,02,06,18.10
2015,07,02,02,07,18.10
2015,07,02,02,08,18.00
2015,07,02,02,09,18.00
2015,07,02,02,10,18.00
2015,07,02,02,11,18.00
2015,07,02,02,12,18.00
2015,07,02,02,13,18.10
2015,07,02,02,14,18.10
2015,07,02,02,15,18.20
2015,07,02,02,16,18.20
2015,07,02,02,17,18.20
2015,07,02,02,18,18.30
2015,07,02,02,19,18.30
2015,07,02,02,20,18.30
2015,07,02,02,21,18.30
2015,07,02,02,22,18.20
2015,07,02,02,23,18.20
2015,07,02,02,24,18.10
2015,07,02,02,25,18.10
2015,07,02,02,26,18.10
2015,07,02,02,27,18.00
2015,07,02,02,28,18.00
2015,07,02,02,29,18.00
2015,07,02,02,30,17.90
2015,07,02,02,31,17.90
2015,07,02,02,32,17.90
2015,07,02,02,33,17.90
2015,07,02,02,34,17.90
2015,07,02,02,35,17.90
2015,07,02,02,36,17.90
2015,07,02,02,37,17.90
2015,07,02,02,38,17.90
2015,07,02,02,39,17.90
2015,07,02,02,40,17.90
2015,07,02,02,41,17.90
2015,07,02,02,42,17.90
2015,07,02,02,43,17.90
2015,07,02,02,44,17.80
2015,07,02,02,45,17.80
2015,07,02,02,46,17.80
2015,07,02,02,47,17.80
2015,07,02,02,48,17.80
2015,07,02,02,49,17.70
2015,07,02,02,50,17.70
2015,07,02,02,51,17.70
2015,07,02,02,52,17.60
2015,07,02,02,53,17.60
2015,07,02,02,54,17.60
2015,07,02,02,55,17.50
2015,07,02,02,56,17.50
2015,07,02,02,57,17.40
2015,07,02,02,58,17.40
2015,07,02,02,59,17.40
2015,07,02,03,00,17.40
2015,07,02,03,01,17.30
2015,07,02,03,02,17.30
2015,07,02,03,03,17.30
2015,07,02,03,04,17.30
2015,07,02,03,05,17.30
2015,07,02,03,06,17.30
2015,07,02,03,07,17.30
2015,07,02,03,08,17.30
2015,07,02,03,09,17.30
2015,07,02,03,10,17.30
2015,07,02,03,11,17.20
2015,07,02,03,12,17.20
2015,07,02,03,13,17.20
2015,07,02,03,14,17.20
2015,07,02,03,15,17.20
2015,07,02,03,16,17.20
2015,07,02,03,17,17.20
2015,07,02,03,18,17.20
2015,07,02,03,19,17.20
2015,07,02,03,20,17.20
2015,07,02,03,21,17.20
2015,07,02,03,22,17.20
2015,07,02,03,23,17.20
2015,07,02,03,24,17.20
2015,07,02,03,25,17.20
2015,07,02,03,26,17.20
2015,07,02,03,27,17.20
2015,07,02,03,28,17.10
2015,07,02,03,29,17.10
2015,07,02,03,30,17.10
2015,07,02,03,31,17.10
2015,07,02,03,32,17.10
2015,07,02,03,33,17.10
2015,07,02,03,34,17.10
2015,07,02,03,35,17.10
2015,07,02,03,36,17.10
2015,07,02,03,37,17.10
2015,07,02,03,38,17.10
2015,07,02,03,39,17.10
2015,07,02,03,40,17.10
2015,07,02,03,41,17.10
2015,07,02,03,42,17.00
2015,07,02,03,43,17.00
2015,07,02,03,44,17.00
2015,07,02,03,45,17.00
2015,07,02,03,46,17.00
2015,07,02,03,47,17.00
2015,07,02,03,48,17.00
2015,07,02,03,49,16.90
2015,07,02,03,50,16.90
2015,07,02,03,51,16.90
2015,07,02,03,52,16.90
2015,07,02,03,53,16.90
2015,07,02,03,54,16.80
2015,07,02,03,55,16.80
2015,07,02,03,56,16.90
2015,07,02,03,57,16.90
2015,07,02,03,58,16.90
2015,07,02,03,59,16.90
2015,07,02,04,00,16.90
2015,07,02,04,01,16.90
2015,07,02,04,02,16.90
2015,07,02,04,03,16.90
2015,07,02,04,04,16.80
2015,07,02,04,05,16.80
2015,07,02,04,06,16.80
2015,07,02,04,07,16.80
2015,07,02,04,08,16.80
2015,07,02,04,09,16.80
2015,07,02,04,10,16.80
2015,07,02,04,11,16.70
2015,07,02,04,12,16.70
2015,07,02,04,13,16.70
2015,07,02,04,14,16.70
2015,07,02,04,15,16.70
2015,07,02,04,16,16.70
2015,07,02,04,17,16.70
2015,07,02,04,18,16.70
2015,07,02,04,19,16.60
2015,07,02,04,20,16.60
2015,07,02,04,21,16.50
2015,07,02,04,22,16.50
2015,07,02,04,23,16.50
2015,07,02,04,24,16.40
2015,07,02,04,25,16.40
2015,07,02,04,26,16.40
2015,07,02,04,27,16.40
2015,07,02,04,28,16.40
2015,07,02,04,29,16.40
2015,07,02,04,30,16.40
2015,07,02,04,31,16.40
2015,07,02,04,32,16.40
2015,07,02,04,33,16.50
2015,07,02,04,34,16.50
2015,07,02,04,35,16.40
2015,07,02,04,36,16.40
2015,07,02,04,37,16.40
2015,07,02,04,38,16.40
2015,07,02,04,39,16.40
2015,07,02,04,40,16.40
2015,07,02,04,41,16.30
2015,07,02,04,42,16.30
2015,07,02,04,43,16.30
2015,07,02,04,44,16.30
2015,07,02,04,45,16.30
2015,07,02,04,46,16.20
2015,07,02,04,47,16.20
2015,07,02,04,48,16.10
2015,07,02,04,49,16.10
2015,07,02,04,50,16.10
2015,07,02,04,51,16.10
2015,07,02,04,52,16.00
2015,07,02,04,53,16.00
2015,07,02,04,54,16.00
2015,07,02,04,55,16.00
2015,07,02,04,56,15.90
2015,07,02,04,57,15.90
2015,07,02,04,58,15.90
2015,07,02,04,59,15.90
2015,07,02,05,00,15.80
2015,07,02,05,01,15.80
2015,07,02,05,02,15.80
2015,07,02,05,03,15.80
2015,07,02,05,04,15.80
2015,07,02,05,05,15.80
2015,07,02,05,06,15.80
2015,07,02,05,07,15.80
2015,07,02,05,08,15.80
2015,07,02,05,09,15.70
2015,07,02,05,10,15.70
2015,07,02,05,11,15.70
2015,07,02,05,12,15.70
2015,07,02,05,13,15.70
2015,07,02,05,14,15.70
2015,07,02,05,15,15.60
2015,07,02,05,16,15.60
2015,07,02,05,17,15.60
2015,07,02,05,18,15.60
2015,07,02,05,19,15.60
2015,07,02,05,20,15.60
2015,07,02,05,21,15.50
2015,07,02,05,22,15.50
2015,07,02,05,23,15.50
2015,07,02,05,24,15.40
2015,07,02,05,25,15.40
2015,07,02,05,26,15.40
2015,07,02,05,27,15.40
2015,07,02,05,28,15.40
2015,07,02,05,29,15.40
2015,07,02,05,30,15.40
2015,07,02,05,31,15.40
2015,07,02,05,32,15.40
2015,07,02,05,33,15.40
2015,07,02,05,34,15.40
2015,07,02,05,35,15.40
2015,07,02,05,36,15.40
2015,07,02,05,37,15.40
2015,07,02,05,38,15.40
2015,07,02,05,39,15.40
2015,07,02,05,40,15.40
2015,07,02,05,41,15.40
2015,07,02,05,42,15.40
2015,07,02,05,43,15.40
2015,07,02,05,44,15.40
2015,07,02,05,45,15.40
2015,07,02,05,46,15.40
2015,07,02,05,47,15.50
2015,07,02,05,48,15.50
2015,07,02,05,49,15.50
2015,07,02,05,50,15.60
2015,07,02,05,51,15.60
2015,07,02,05,52,15.60
2015,07,02,05,53,15.70
2015,07,02,05,54,15.80
2015,07,02,05,55,15.80
2015,07,02,05,56,15.90
2015,07,02,05,57,15.90
2015,07,02,05,58,15.90
2015,07,02,05,59,16.00
2015,07,02,06,00,16.10
2015,07,02,06,01,16.10
2015,07,02,06,02,16.20
2015,07,02,06,03,16.20
2015,07,02,06,04,16.30
2015,07,02,06,05,16.40
2015,07,02,06,06,16.40
2015,07,02,06,07,16.40
2015,07,02,06,08,16.50
2015,07,02,06,09,16.50
2015,07,02,06,10,16.60
2015,07,02,06,11,16.60
2015,07,02,06,12,16.70
2015,07,02,06,13,16.70
2015,07,02,06,14,16.80
2015,07,02,06,15,16.80
2015,07,02,06,16,16.90
2015,07,02,06,17,17.00
2015,07,02,06,18,17.00
2015,07,02,06,19,17.10
2015,07,02,06,20,17.10
2015,07,02,06,21,17.20
2015,07,02,06,22,17.20
2015,07,02,06,23,17.20
2015,07,02,06,24,17.20
2015,07,02,06,25,17.20
2015,07,02,06,26,17.20
2015,07,02,06,27,17.20
2015,07,02,06,28,17.20
2015,07,02,06,29,17.20
2015,07,02,06,30,17.30
2015,07,02,06,31,17.30
2015,07,02,06,32,17.30
2015,07,02,06,33,17.40
2015,07,02,06,34,17.40
2015,07,02,06,35,17.50
2015,07,02,06,36,17.50
2015,07,02,06,37,17.50
2015,07,02,06,38,17.60
2015,07,02,06,39,17.60
2015,07,02,06,40,17.60
2015,07,02,06,41,17.60
2015,07,02,06,42,17.60
2015,07,02,06,43,17.60
2015,07,02,06,44,17.60
2015,07,02,06,45,17.60
2015,07,02,06,46,17.70
2015,07,02,06,47,17.70
2015,07,02,06,48,17.70
2015,07,02,06,49,17.70
2015,07,02,06,50,17.70
2015,07,02,06,51,17.70
2015,07,02,06,52,17.80
2015,07,02,06,53,17.80
2015,07,02,06,54,17.80
2015,07,02,06,55,17.90
2015,07,02,06,56,17.90
2015,07,02,06,57,18.00
2015,07,02,06,58,18.00
2015,07,02,06,59,18.10
2015,07,02,07,00,18.10
2015,07,02,07,01,18.10
2015,07,02,07,02,18.20
2015,07,02,07,03,18.20
2015,07,02,07,04,18.30
2015,07,02,07,05,18.30
2015,07,02,07,06,18.30
2015,07,02,07,07,18.30
2015,07,02,07,08,18.40
2015,07,02,07,09,18.40
2015,07,02,07,10,18.50
2015,07,02,07,11,18.50
2015,07,02,07,12,18.60
2015,07,02,07,13,18.80
2015,07,02,07,14,18.80
2015,07,02,07,15,18.90
2015,07,02,07,16,19.00
2015,07,02,07,17,19.10
2015,07,02,07,18,19.20
2015,07,02,07,19,19.20
2015,07,02,07,20,19.20
2015,07,02,07,21,19.30
2015,07,02,07,22,19.30
2015,07,02,07,23,19.40
2015,07,02,07,24,19.40
2015,07,02,07,25,19.50
2015,07,02,07,26,19.60
2015,07,02,07,27,19.70
2015,07,02,07,28,19.80
2015,07,02,07,29,19.90
2015,07,02,07,30,20.00
2015,07,02,07,31,20.10
2015,07,02,07,32,20.10
2015,07,02,07,33,20.20
2015,07,02,07,34,20.20
2015,07,02,07,35,20.30
2015,07,02,07,36,20.30
2015,07,02,07,37,20.40
2015,07,02,07,38,20.50
2015,07,02,07,39,20.60
2015,07,02,07,40,20.70
2015,07,02,07,41,20.80
2015,07,02,07,42,20.90
2015,07,02,07,43,21.00
2015,07,02,07,44,21.10
2015,07,02,07,45,21.10
2015,07,02,07,46,21.20
2015,07,02,07,47,21.30
2015,07,02,07,48,21.30
2015,07,02,07,49,21.40
2015,07,02,07,50,21.50
2015,07,02,07,51,21.60
2015,07,02,07,52,21.60
2015,07,02,07,53,21.70
2015,07,02,07,54,21.70
2015,07,02,07,55,21.80
2015,07,02,07,56,21.80
2015,07,02,07,57,21.90
2015,07,02,07,58,22.00
2015,07,02,07,59,22.10
2015,07,02,08,00,22.20
2015,07,02,08,01,22.30
2015,07,02,08,02,22.40
2015,07,02,08,03,22.50
2015,07,02,08,04,22.60
2015,07,02,08,05,22.60
2015,07,02,08,06,22.70
2015,07,02,08,07,22.70
2015,07,02,08,08,22.80
2015,07,02,08,09,22.80
2015,07,02,08,10,22.90
2015,07,02,08,11,22.90
2015,07,02,08,12,23.00
2015,07,02,08,13,23.10
2015,07,02,08,14,23.10
2015,07,02,08,15,23.20
2015,07,02,08,16,23.30
2015,07,02,08,17,23.30
2015,07,02,08,18,23.40
2015,07,02,08,19,23.40
2015,07,02,08,20,23.50
2015,07,02,08,21,23.50
2015,07,02,08,22,23.60
2015,07,02,08,23,23.70
2015,07,02,08,24,23.80
2015,07,02,08,25,23.80
2015,07,02,08,26,23.90
2015,07,02,08,27,24.00
2015,07,02,08,28,24.10
2015,07,02,08,29,24.20
2015,07,02,08,30,24.30
2015,07,02,08,31,24.40
2015,07,02,08,32,24.50
2015,07,02,08,33,24.50
2015,07,02,08,34,24.60
2015,07,02,08,35,24.70
2015,07,02,08,36,24.70
2015,07,02,08,37,24.80
2015,07,02,08,38,24.80
2015,07,02,08,39,24.90
2015,07,02,08,40,24.90
2015,07,02,08,41,25.00
2015,07,02,08,42,25.10
2015,07,02,08,43,25.20
2015,07,02,08,44,25.20
2015,07,02,08,45,25.30
2015,07,02,08,46,25.40
2015,07,02,08,47,25.50
2015,07,02,08,48,25.50
2015,07,02,08,49,25.50
2015,07,02,08,50,25.50
2015,07,02,08,51,25.60
2015,07,02,08,52,25.60
2015,07,02,08,53,25.70
2015,07,02,08,54,25.70
2015,07,02,08,55,25.70
2015,07,02,08,56,25.80
2015,07,02,08,57,25.80
2015,07,02,08,58,25.90
2015,07,02,08,59,25.90
2015,07,02,09,00,25.90
2015,07,02,09,01,25.90
2015,07,02,09,02,25.90
2015,07,02,09,03,25.80
2015,07,02,09,04,25.80
2015,07,02,09,05,25.90
2015,07,02,09,06,25.90
2015,07,02,09,07,26.00
2015,07,02,09,08,26.00
2015,07,02,09,09,25.90
2015,07,02,09,10,25.90
2015,07,02,09,11,25.80
2015,07,02,09,12,25.80
2015,07,02,09,13,25.70
2015,07,02,09,14,25.70
2015,07,02,09,15,25.70
2015,07,02,09,16,25.70
2015,07,02,09,17,25.70
2015,07,02,09,18,25.70
2015,07,02,09,19,25.80
2015,07,02,09,20,25.80
2015,07,02,09,21,25.80
2015,07,02,09,22,25.90
2015,07,02,09,23,25.90
2015,07,02,09,24,26.00
2015,07,02,09,25,26.10
2015,07,02,09,26,26.20
2015,07,02,09,27,26.30
2015,07,02,09,28,26.30
2015,07,02,09,29,26.40
2015,07,02,09,30,26.40
2015,07,02,09,31,26.40
2015,07,02,09,32,26.50
2015,07,02,09,33,26.60
2015,07,02,09,34,26.60
2015,07,02,09,35,26.60
2015,07,02,09,36,26.60
2015,07,02,09,37,26.60
2015,07,02,09,38,26.60
2015,07,02,09,39,26.60
2015,07,02,09,40,26.70
2015,07,02,09,41,26.70
2015,07,02,09,42,26.70
2015,07,02,09,43,26.70
2015,07,02,09,44,26.80
2015,07,02,09,45,26.80
2015,07,02,09,46,26.80
2015,07,02,09,47,26.70
2015,07,02,09,48,26.70
2015,07,02,09,49,26.60
2015,07,02,09,50,26.60
2015,07,02,09,51,26.50
2015,07,02,09,52,26.50
2015,07,02,09,53,26.50
2015,07,02,09,54,26.50
2015,07,02,09,55,26.50
2015,07,02,09,56,26.50
2015,07,02,09,57,26.50
2015,07,02,09,58,26.50
2015,07,02,09,59,26.50
2015,07,02,10,00,26.50
2015,07,02,10,01,26.50
2015,07,02,10,02,26.50
2015,07,02,10,03,26.60
2015,07,02,10,04,26.60
2015,07,02,10,05,26.60
2015,07,02,10,06,26.50
2015,07,02,10,07,26.60
2015,07,02,10,08,26.70
2015,07,02,10,09,26.70
2015,07,02,10,10,26.80
2015,07,02,10,11,26.80
2015,07,02,10,12,26.80
2015,07,02,10,13,26.80
2015,07,02,10,14,26.80
2015,07,02,10,15,26.80
2015,07,02,10,16,26.90
2015,07,02,10,17,27.00
2015,07,02,10,18,27.00
2015,07,02,10,19,27.10
2015,07,02,10,20,27.20
2015,07,02,10,21,27.20
2015,07,02,10,22,27.20
2015,07,02,10,23,27.20
2015,07,02,10,24,27.30
2015,07,02,10,25,27.30
2015,07,02,10,26,27.30
2015,07,02,10,27,27.50
2015,07,02,10,28,27.60
2015,07,02,10,29,27.70
2015,07,02,10,30,27.80
2015,07,02,10,31,27.80
2015,07,02,10,32,27.80
2015,07,02,10,33,27.80
2015,07,02,10,34,27.90
2015,07,02,10,35,27.90
2015,07,02,10,36,27.90
2015,07,02,10,37,27.90
2015,07,02,10,38,27.90
2015,07,02,10,39,27.90
2015,07,02,10,40,27.90
2015,07,02,10,41,27.90
2015,07,02,10,42,27.90
2015,07,02,10,43,27.90
2015,07,02,10,44,28.00
2015,07,02,10,45,28.00
2015,07,02,10,46,28.10
2015,07,02,10,47,28.10
2015,07,02,10,48,28.00
2015,07,02,10,49,28.00
2015,07,02,10,50,28.00
2015,07,02,10,51,28.00
2015,07,02,10,52,28.00
2015,07,02,10,53,27.90
2015,07,02,10,54,28.00
2015,07,02,10,55,28.10
2015,07,02,10,56,28.20
2015,07,02,10,57,28.30
2015,07,02,10,58,28.30
2015,07,02,10,59,28.40
2015,07,02,11,00,28.50
2015,07,02,11,01,28.50
2015,07,02,11,02,28.50
2015,07,02,11,03,28.40
2015,07,02,11,04,28.40
2015,07,02,11,05,28.30
2015,07,02,11,06,28.30
2015,07,02,11,07,28.20
2015,07,02,11,08,28.20
2015,07,02,11,09,28.20
2015,07,02,11,10,28.20
2015,07,02,11,11,28.30
2015,07,02,11,12,28.50
2015,07,02,11,13,28.70
2015,07,02,11,14,28.80
2015,07,02,11,15,28.90
2015,07,02,11,16,29.00
2015,07,02,11,17,29.00
2015,07,02,11,18,28.90
2015,07,02,11,19,28.90
2015,07,02,11,20,28.90
2015,07,02,11,21,28.90
2015,07,02,11,22,28.90
2015,07,02,11,23,29.00
2015,07,02,11,24,29.10
2015,07,02,11,25,29.20
2015,07,02,11,26,29.30
2015,07,02,11,27,29.30
2015,07,02,11,28,29.30
2015,07,02,11,29,29.30
2015,07,02,11,30,29.30
2015,07,02,11,31,29.30
2015,07,02,11,32,29.30
2015,07,02,11,33,29.30
2015,07,02,11,34,29.30
2015,07,02,11,35,29.20
2015,07,02,11,36,29.30
2015,07,02,11,37,29.30
2015,07,02,11,38,29.30
2015,07,02,11,39,29.30
2015,07,02,11,40,29.40
2015,07,02,11,41,29.50
2015,07,02,11,42,29.50
2015,07,02,11,43,29.50
2015,07,02,11,44,29.50
2015,07,02,11,45,29.60
2015,07,02,11,46,29.70
2015,07,02,11,47,29.70
2015,07,02,11,48,29.70
2015,07,02,11,49,29.60
2015,07,02,11,50,29.50
2015,07,02,11,51,29.50
2015,07,02,11,52,29.50
2015,07,02,11,53,29.50
2015,07,02,11,54,29.50
2015,07,02,11,55,29.60
2015,07,02,11,56,29.60
2015,07,02,11,57,29.70
2015,07,02,11,58,29.70
2015,07,02,11,59,29.70
2015,07,02,12,00,29.70
2015,07,02,12,01,29.70
2015,07,02,12,02,29.70
2015,07,02,12,03,29.70
2015,07,02,12,04,29.70
2015,07,02,12,05,29.70
2015,07,02,12,06,29.70
2015,07,02,12,07,29.70
2015,07,02,12,08,29.50
2015,07,02,12,09,29.40
2015,07,02,12,10,29.30
2015,07,02,12,11,29.30
2015,07,02,12,12,29.30
2015,07,02,12,13,29.40
2015,07,02,12,14,29.50
2015,07,02,12,15,29.50
2015,07,02,12,16,29.40
2015,07,02,12,17,29.30
2015,07,02,12,18,29.30
2015,07,02,12,19,29.40
2015,07,02,12,20,29.50
2015,07,02,12,21,29.60
2015,07,02,12,22,29.60
2015,07,02,12,23,29.60
2015,07,02,12,24,29.60
2015,07,02,12,25,29.60
2015,07,02,12,26,29.60
2015,07,02,12,27,29.70
2015,07,02,12,28,29.80
2015,07,02,12,29,29.80
2015,07,02,12,30,29.80
2015,07,02,12,31,29.70
2015,07,02,12,32,29.80
2015,07,02,12,33,29.80
2015,07,02,12,34,29.90
2015,07,02,12,35,30.00
2015,07,02,12,36,30.10
2015,07,02,12,37,30.00
2015,07,02,12,38,29.90
2015,07,02,12,39,29.90
2015,07,02,12,40,29.90
2015,07,02,12,41,29.90
2015,07,02,12,42,29.80
2015,07,02,12,43,29.80
2015,07,02,12,44,29.80
2015,07,02,12,45,29.80
2015,07,02,12,46,29.90
2015,07,02,12,47,29.90
2015,07,02,12,48,29.80
2015,07,02,12,49,29.80
2015,07,02,12,50,29.70
2015,07,02,12,51,29.60
2015,07,02,12,52,29.50
2015,07,02,12,53,29.50
2015,07,02,12,54,29.40
2015,07,02,12,55,29.40
2015,07,02,12,56,29.40
2015,07,02,12,57,29.50
2015,07,02,12,58,29.60
2015,07,02,12,59,29.70
2015,07,02,13,00,29.80
2015,07,02,13,01,29.80
2015,07,02,13,02,29.80
2015,07,02,13,03,29.80
2015,07,02,13,04,29.70
2015,07,02,13,05,29.60
2015,07,02,13,06,29.60
2015,07,02,13,07,29.70
2015,07,02,13,08,29.70
2015,07,02,13,09,29.80
2015,07,02,13,10,29.90
2015,07,02,13,11,29.90
2015,07,02,13,12,29.90
2015,07,02,13,13,29.90
2015,07,02,13,14,30.00
2015,07,02,13,15,29.90
2015,07,02,13,16,29.90
2015,07,02,13,17,29.90
2015,07,02,13,18,29.90
2015,07,02,13,19,30.00
2015,07,02,13,20,30.10
2015,07,02,13,21,30.20
2015,07,02,13,22,30.20
2015,07,02,13,23,30.30
2015,07,02,13,24,30.30
2015,07,02,13,25,30.30
2015,07,02,13,26,30.30
2015,07,02,13,27,30.40
2015,07,02,13,28,30.40
2015,07,02,13,29,30.40
2015,07,02,13,30,30.30
2015,07,02,13,31,30.20
2015,07,02,13,32,30.00
2015,07,02,13,33,29.90
2015,07,02,13,34,29.80
2015,07,02,13,35,29.80
2015,07,02,13,36,29.80
2015,07,02,13,37,29.90
2015,07,02,13,38,29.90
2015,07,02,13,39,30.00
2015,07,02,13,40,30.10
2015,07,02,13,41,30.20
2015,07,02,13,42,30.30
2015,07,02,13,43,30.40
2015,07,02,13,44,30.50
2015,07,02,13,45,30.50
2015,07,02,13,46,30.50
2015,07,02,13,47,30.50
2015,07,02,13,48,30.40
2015,07,02,13,49,30.40
2015,07,02,13,50,30.30
2015,07,02,13,51,30.30
2015,07,02,13,52,30.20
2015,07,02,13,53,30.20
2015,07,02,13,54,30.10
2015,07,02,13,55,30.10
2015,07,02,13,56,30.10
2015,07,02,13,57,30.10
2015,07,02,13,58,30.10
2015,07,02,13,59,30.10
2015,07,02,14,00,30.10
2015,07,02,14,01,30.20
2015,07,02,14,02,30.20
2015,07,02,14,03,30.30
2015,07,02,14,04,30.40
2015,07,02,14,05,30.60
2015,07,02,14,06,30.70
2015,07,02,14,07,30.70
2015,07,02,14,08,30.70
2015,07,02,14,09,30.80
2015,07,02,14,10,30.80
2015,07,02,14,11,30.90
2015,07,02,14,12,30.90
2015,07,02,14,13,31.10
2015,07,02,14,14,31.20
2015,07,02,14,15,31.40
2015,07,02,14,16,31.40
2015,07,02,14,17,31.40
2015,07,02,14,18,31.40
2015,07,02,14,19,31.50
2015,07,02,14,20,31.50
2015,07,02,14,21,31.60
2015,07,02,14,22,31.70
2015,07,02,14,23,31.80
2015,07,02,14,24,31.80
2015,07,02,14,25,31.90
2015,07,02,14,26,32.00
2015,07,02,14,27,32.00
2015,07,02,14,28,32.00
2015,07,02,14,29,32.00
2015,07,02,14,30,31.90
2015,07,02,14,31,31.80
2015,07,02,14,32,31.70
2015,07,02,14,33,31.80
2015,07,02,14,34,31.70
2015,07,02,14,35,31.70
2015,07,02,14,36,31.70
2015,07,02,14,37,31.70
2015,07,02,14,38,31.60
2015,07,02,14,39,31.60
2015,07,02,14,40,31.60
2015,07,02,14,41,31.70
2015,07,02,14,42,31.70
2015,07,02,14,43,31.50
2015,07,02,14,44,31.40
2015,07,02,14,45,31.40
2015,07,02,14,46,31.50
2015,07,02,14,47,31.50
2015,07,02,14,48,31.60
2015,07,02,14,49,31.70
2015,07,02,14,50,31.80
2015,07,02,14,51,31.80
2015,07,02,14,52,31.70
2015,07,02,14,53,31.60
2015,07,02,14,54,31.60
2015,07,02,14,55,31.60
2015,07,02,14,56,31.70
2015,07,02,14,57,31.80
2015,07,02,14,58,31.90
2015,07,02,14,59,31.90
2015,07,02,15,00,32.00
2015,07,02,15,01,32.10
2015,07,02,15,02,32.10
2015,07,02,15,03,32.10
2015,07,02,15,04,32.00
2015,07,02,15,05,32.00
2015,07,02,15,06,32.00
2015,07,02,15,07,32.10
2015,07,02,15,08,32.00
2015,07,02,15,09,31.90
2015,07,02,15,10,31.90
2015,07,02,15,11,31.80
2015,07,02,15,12,31.70
2015,07,02,15,13,31.60
2015,07,02,15,14,31.70
2015,07,02,15,15,31.80
2015,07,02,15,16,31.80
2015,07,02,15,17,31.90
2015,07,02,15,18,31.90
2015,07,02,15,19,31.90
2015,07,02,15,20,31.90
2015,07,02,15,21,31.90
2015,07,02,15,22,32.00
2015,07,02,15,23,31.90
2015,07,02,15,24,32.00
2015,07,02,15,25,32.00
2015,07,02,15,26,32.10
2015,07,02,15,27,32.10
2015,07,02,15,28,32.20
2015,07,02,15,29,32.20
2015,07,02,15,30,32.20
2015,07,02,15,31,32.10
2015,07,02,15,32,31.80
2015,07,02,15,33,31.70
2015,07,02,15,34,31.60
2015,07,02,15,35,31.50
2015,07,02,15,36,31.40
2015,07,02,15,37,31.30
2015,07,02,15,38,31.20
2015,07,02,15,39,31.10
2015,07,02,15,40,31.10
2015,07,02,15,41,31.00
2015,07,02,15,42,31.00
2015,07,02,15,43,31.00
2015,07,02,15,44,31.10
2015,07,02,15,45,31.10
2015,07,02,15,46,31.20
2015,07,02,15,47,31.30
2015,07,02,15,48,31.30
2015,07,02,15,49,31.30
2015,07,02,15,50,31.30
2015,07,02,15,51,31.30
2015,07,02,15,52,31.20
2015,07,02,15,53,31.10
2015,07,02,15,54,31.10
2015,07,02,15,55,31.10
2015,07,02,15,56,31.10
2015,07,02,15,57,31.10
2015,07,02,15,58,31.20
2015,07,02,15,59,31.30
2015,07,02,16,00,31.30
2015,07,02,16,01,31.30
2015,07,02,16,02,31.30
2015,07,02,16,03,31.30
2015,07,02,16,04,31.30
2015,07,02,16,05,31.30
2015,07,02,16,06,31.30
2015,07,02,16,07,31.30
2015,07,02,16,08,31.30
2015,07,02,16,09,31.40
2015,07,02,16,10,31.50
2015,07,02,16,11,31.60
2015,07,02,16,12,31.80
2015,07,02,16,13,32.00
2015,07,02,16,14,32.10
2015,07,02,16,15,32.10
2015,07,02,16,16,32.10
2015,07,02,16,17,32.10
2015,07,02,16,18,32.10
2015,07,02,16,19,32.10
2015,07,02,16,20,32.10
2015,07,02,16,21,32.10
2015,07,02,16,22,32.20
2015,07,02,16,23,32.40
2015,07,02,16,24,32.50
2015,07,02,16,25,32.60
2015,07,02,16,26,32.60
2015,07,02,16,27,32.60
2015,07,02,16,28,32.70
2015,07,02,16,29,32.70
2015,07,02,16,30,32.80
2015,07,02,16,31,32.90
2015,07,02,16,32,32.90
2015,07,02,16,33,32.90
2015,07,02,16,34,32.90
2015,07,02,16,35,32.90
2015,07,02,16,36,32.90
2015,07,02,16,37,32.90
2015,07,02,16,38,32.90
2015,07,02,16,39,32.90
2015,07,02,16,40,32.90
2015,07,02,16,41,32.90
2015,07,02,16,42,32.90
2015,07,02,16,43,32.90
2015,07,02,16,44,32.90
2015,07,02,16,45,33.00
2015,07,02,16,46,33.00
2015,07,02,16,47,32.90
2015,07,02,16,48,32.90
2015,07,02,16,49,32.90
2015,07,02,16,50,32.90
2015,07,02,16,51,32.80
2015,07,02,16,52,32.80
2015,07,02,16,53,32.80
2015,07,02,16,54,32.90
2015,07,02,16,55,32.90
2015,07,02,16,56,32.90
2015,07,02,16,57,32.80
2015,07,02,16,58,32.80
2015,07,02,16,59,32.80
2015,07,02,17,00,32.70
2015,07,02,17,01,32.70
2015,07,02,17,02,32.60
2015,07,02,17,03,32.60
2015,07,02,17,04,32.50
2015,07,02,17,05,32.50
2015,07,02,17,06,32.50
2015,07,02,17,07,32.60
2015,07,02,17,08,32.70
2015,07,02,17,09,32.70
2015,07,02,17,10,32.80
2015,07,02,17,11,32.80
2015,07,02,17,12,32.90
2015,07,02,17,13,32.80
2015,07,02,17,14,32.80
2015,07,02,17,15,32.80
2015,07,02,17,16,32.70
2015,07,02,17,17,32.70
2015,07,02,17,18,32.70
2015,07,02,17,19,32.80